When you browse on this site, cookies collect data to enhance your experience and personalize the content and advertising you see.
Visit our Privacy Policy to learn more. By continuing to use the site, you agree to this use of cookies and data.
  • In Deutschland
  • Länderverzeichnis
  • Für 7 Tage
  • Wassertemperatur
  • Satellitenkarten
  • Wetterkarte
  • Widgets
  • user-avatar
    Anmelden

    Stündliche Wetter Efimlevo

    Heute, 17 Februar, Sonntag

    Zeit Temperatur Niederschläge Wind Luftdruck Luftfeuchtigkeit
    00:00 -1°C° 0 mm 5 m/S 736 mmHg 83%
    01:00 -1°C° 0 mm 5 m/S 735 mmHg 83%
    02:00 -1°C° 0 mm 5 m/S 735 mmHg 82%
    03:00 -1°C° 0 mm 5 m/S 734 mmHg 83%
    04:00 -2°C° 0 mm 5 m/S 734 mmHg 85%
    05:00 -2°C° 0 mm 5 m/S 733 mmHg 86%
    06:00 -1°C° 0 mm 5 m/S 734 mmHg 88%
    07:00 -1°C° 0 mm 5 m/S 734 mmHg 89%
    08:00 -1°C° 0 mm 5 m/S 734 mmHg 91%
    09:00 -2°C° 0 mm 6 m/S 734 mmHg 89%
    10:00 -2°C° 0 mm 6 m/S 734 mmHg 87%
    11:00 -2°C° 0 mm 6 m/S 734 mmHg 85%
    12:00 -2°C° 0 mm 6 m/S 734 mmHg 83%
    13:00 -2°C° 0 mm 6 m/S 734 mmHg 81%
    14:00 -2°C° 0 mm 6 m/S 735 mmHg 79%
    15:00 -2°C° 0 mm 6 m/S 735 mmHg 79%
    16:00 -3°C° 0 mm 6 m/S 735 mmHg 78%
    17:00 -3°C° 0 mm 6 m/S 736 mmHg 78%
    18:00 -4°C° 0 mm 6 m/S 736 mmHg 78%
    19:00 -4°C° 0 mm 6 m/S 737 mmHg 77%
    20:00 -5°C° 0 mm 5 m/S 738 mmHg 77%
    21:00 -5°C° 0 mm 5 m/S 738 mmHg 78%
    22:00 -5°C° 0 mm 4 m/S 739 mmHg 80%
    23:00 -7°C° 0 mm 4 m/S 739 mmHg 81%

    Morgen, 18 Februar, Montag

    Zeit Temperatur Niederschläge Wind Luftdruck Luftfeuchtigkeit
    00:00 -7°C° 0 mm 4 m/S 740 mmHg 83%
    01:00 -7°C° 0 mm 3 m/S 741 mmHg 84%
    02:00 -7°C° 0 mm 3 m/S 741 mmHg 86%
    03:00 -7°C° 0 mm 3 m/S 742 mmHg 85%
    04:00 -7°C° 0 mm 3 m/S 742 mmHg 85%
    05:00 -7°C° 0 mm 3 m/S 743 mmHg 85%
    06:00 -7°C° 0 mm 3 m/S 744 mmHg 86%
    07:00 -8°C° 0 mm 3 m/S 744 mmHg 87%
    08:00 -8°C° 0 mm 3 m/S 745 mmHg 87%
    09:00 -8°C° 0 mm 3 m/S 745 mmHg 85%
    10:00 -7°C° 0 mm 3 m/S 746 mmHg 83%
    11:00 -6°C° 0 mm 3 m/S 746 mmHg 82%
    12:00 -6°C° 0 mm 3 m/S 747 mmHg 80%
    13:00 -5°C° 0 mm 3 m/S 747 mmHg 79%
    14:00 -5°C° 0 mm 3 m/S 747 mmHg 78%
    15:00 -5°C° 0 mm 2 m/S 747 mmHg 81%
    16:00 -4°C° 0 mm 1 m/S 747 mmHg 83%
    17:00 -7°C° 0 mm 1 m/S 748 mmHg 86%
    18:00 -7°C° 0 mm 1 m/S 748 mmHg 86%
    19:00 -8°C° 0 mm 0 m/S 748 mmHg 86%
    20:00 -9°C° 0 mm 0 m/S 748 mmHg 87%
    21:00 -9°C° 0 mm 0 m/S 748 mmHg 87%
    22:00 -9°C° 0 mm 1 m/S 748 mmHg 87%
    23:00 -9°C° 0 mm 1 m/S 748 mmHg 87%

    übermorgen, 19 Februar, Dienstag

    Zeit Temperatur Niederschläge Wind Luftdruck Luftfeuchtigkeit
    00:00 -10°C° 0 mm 2 m/S 748 mmHg 87%
    01:00 -10°C° 0 mm 2 m/S 748 mmHg 88%
    02:00 -9°C° 0 mm 2 m/S 748 mmHg 88%
    03:00 -10°C° 0 mm 3 m/S 748 mmHg 88%
    04:00 -10°C° 0 mm 3 m/S 747 mmHg 88%
    05:00 -9°C° 0 mm 3 m/S 747 mmHg 88%
    06:00 -9°C° 0 mm 3 m/S 746 mmHg 87%
    07:00 -10°C° 0 mm 4 m/S 746 mmHg 86%
    08:00 -9°C° 0 mm 4 m/S 746 mmHg 85%
    09:00 -8°C° 0 mm 4 m/S 745 mmHg 83%
    10:00 -7°C° 0 mm 5 m/S 745 mmHg 81%
    11:00 -5°C° 0 mm 5 m/S 745 mmHg 79%
    12:00 -5°C° 0 mm 5 m/S 744 mmHg 77%
    13:00 -4°C° 0 mm 5 m/S 743 mmHg 75%
    14:00 -2°C° 0 mm 5 m/S 743 mmHg 74%
    15:00 -4°C° 0 mm 5 m/S 742 mmHg 75%
    16:00 -5°C° 0 mm 5 m/S 742 mmHg 76%
    17:00 -5°C° 0 mm 5 m/S 741 mmHg 77%
    18:00 -5°C° 0 mm 5 m/S 741 mmHg 79%
    19:00 -6°C° 0 mm 5 m/S 740 mmHg 80%
    20:00 -6°C° 0 mm 5 m/S 740 mmHg 81%
    21:00 -6°C° 0 mm 5 m/S 739 mmHg 82%
    22:00 -6°C° 0 mm 5 m/S 738 mmHg 83%
    23:00 -6°C° 0 mm 5 m/S 738 mmHg 84%

    20 Februar, Mittwoch

    Zeit Temperatur Niederschläge Wind Luftdruck Luftfeuchtigkeit
    00:00 -5°C° 0 mm 5 m/S 737 mmHg 86%
    01:00 -5°C° 0 mm 5 m/S 737 mmHg 87%
    02:00 -4°C° 0 mm 5 m/S 736 mmHg 89%
    03:00 -2°C° 0.1 mm 5 m/S 736 mmHg 90%
    04:00 -2°C° 0.1 mm 5 m/S 735 mmHg 90%
    05:00 -1°C° 0.1 mm 5 m/S 735 mmHg 91%
    06:00 -1°C° 0.5 mm 5 m/S 734 mmHg 92%
    07:00 -1°C° 0.5 mm 5 m/S 734 mmHg 93%
    08:00 -1°C° 0.5 mm 4 m/S 734 mmHg 93%
    09:00 -1°C° 0.1 mm 4 m/S 734 mmHg 94%
    10:00 -1°C° 0.1 mm 4 m/S 734 mmHg 94%
    11:00 -1°C° 0.1 mm 4 m/S 733 mmHg 95%
    12:00 0°C° 0.1 mm 4 m/S 733 mmHg 94%
    13:00 0°C° 0.1 mm 5 m/S 733 mmHg 93%
    14:00 0°C° 0.1 mm 5 m/S 732 mmHg 92%
    15:00 0°C° 0.4 mm 5 m/S 732 mmHg 91%
    16:00 0°C° 0.4 mm 5 m/S 732 mmHg 90%
    17:00 0°C° 0.4 mm 5 m/S 732 mmHg 88%
    18:00 -1°C° 0.2 mm 5 m/S 732 mmHg 88%
    19:00 -1°C° 0.2 mm 5 m/S 732 mmHg 87%
    20:00 -1°C° 0.2 mm 5 m/S 732 mmHg 87%
    21:00 -1°C° 0.1 mm 5 m/S 732 mmHg 87%
    22:00 -1°C° 0.1 mm 5 m/S 732 mmHg 88%
    23:00 -1°C° 0.1 mm 5 m/S 732 mmHg 88%

    21 Februar, Donnerstag

    Zeit Temperatur Niederschläge Wind Luftdruck Luftfeuchtigkeit
    00:00 -1°C° 0.1 mm 5 m/S 732 mmHg 89%
    01:00 -2°C° 0.1 mm 4 m/S 732 mmHg 89%
    02:00 -2°C° 0.1 mm 4 m/S 732 mmHg 89%
    03:00 -2°C° 0.1 mm 4 m/S 733 mmHg 90%
    04:00 -2°C° 0.1 mm 4 m/S 733 mmHg 90%
    05:00 -2°C° 0.1 mm 4 m/S 733 mmHg 90%
    06:00 -2°C° 0.2 mm 4 m/S 733 mmHg 90%
    07:00 -2°C° 0.2 mm 5 m/S 733 mmHg 89%
    08:00 -4°C° 0.2 mm 5 m/S 734 mmHg 89%
    09:00 -4°C° 0.1 mm 5 m/S 734 mmHg 86%
    10:00 -4°C° 0.1 mm 5 m/S 735 mmHg 83%
    11:00 -5°C° 0.1 mm 5 m/S 735 mmHg 81%
    12:00 -5°C° 0.1 mm 5 m/S 736 mmHg 79%
    13:00 -6°C° 0.1 mm 6 m/S 737 mmHg 78%
    14:00 -8°C° 0.1 mm 6 m/S 737 mmHg 77%
    15:00 -7°C° 0.1 mm 5 m/S 738 mmHg 78%
    16:00 -8°C° 0.1 mm 5 m/S 739 mmHg 79%
    17:00 -9°C° 0.1 mm 4 m/S 740 mmHg 80%
    18:00 -10°C° 0 mm 4 m/S 740 mmHg 81%
    19:00 -11°C° 0 mm 4 m/S 741 mmHg 82%
    20:00 -12°C° 0 mm 4 m/S 742 mmHg 82%
    21:00 -12°C° 0 mm 3 m/S 742 mmHg 83%
    22:00 -13°C° 0 mm 3 m/S 743 mmHg 84%
    23:00 -14°C° 0 mm 3 m/S 744 mmHg 84%

    22 Februar, Freitag

    Zeit Temperatur Niederschläge Wind Luftdruck Luftfeuchtigkeit
    00:00 -14°C° 0 mm 3 m/S 744 mmHg 85%
    01:00 -14°C° 0 mm 3 m/S 745 mmHg 86%
    02:00 -15°C° 0 mm 3 m/S 745 mmHg 87%
    03:00 -15°C° 0 mm 3 m/S 746 mmHg 87%
    04:00 -16°C° 0 mm 3 m/S 746 mmHg 87%
    05:00 -16°C° 0 mm 3 m/S 747 mmHg 88%
    06:00 -16°C° 0 mm 3 m/S 748 mmHg 86%
    07:00 -16°C° 0 mm 3 m/S 748 mmHg 85%
    08:00 -16°C° 0 mm 3 m/S 749 mmHg 83%
    09:00 -15°C° 0 mm 4 m/S 750 mmHg 80%
    10:00 -14°C° 0 mm 4 m/S 750 mmHg 77%
    11:00 -11°C° 0 mm 4 m/S 751 mmHg 74%
    12:00 -11°C° 0 mm 4 m/S 751 mmHg 72%
    13:00 -10°C° 0 mm 4 m/S 751 mmHg 71%
    14:00 -9°C° 0 mm 4 m/S 752 mmHg 70%
    15:00 -10°C° 0 mm 4 m/S 752 mmHg 73%
    16:00 -11°C° 0 mm 4 m/S 752 mmHg 77%
    17:00 -10°C° 0 mm 3 m/S 753 mmHg 80%
    18:00 -12°C° 0 mm 3 m/S 753 mmHg 82%
    19:00 -12°C° 0 mm 4 m/S 753 mmHg 84%
    20:00 -14°C° 0 mm 4 m/S 754 mmHg 86%
    21:00 -13°C° 0 mm 3 m/S 754 mmHg 87%
    22:00 -13°C° 0 mm 3 m/S 754 mmHg 89%
    23:00 -14°C° 0 mm 3 m/S 755 mmHg 91%
    Mehr zeigen